Debrecen, Hungary

5:46 AM CEST on August 21, 2017 (GMT +0200)
Debrecen

Weather History for LHDC - August, 2014

Change the Weather History Date:

Wednesday, August 27, 2014

  Actual Average Record
Temperature  
Mean Temperature 68 °F -  
Max Temperature 76 °F 73 °F - ()
Min Temperature 58 °F 52 °F - ()
Cooling Degree Days 2    
Growing Degree Days 18 (Base 50)    
Moisture  
Dew Point 58 °F    
Average Humidity 73    
Maximum Humidity 94    
Minimum Humidity 41    
Precipitation  
Precipitation 0.00 in 0.05 in - ()
Sea Level Pressure  
Sea Level Pressure 29.78 in    
Wind  
Wind Speed 8 mph ()    
Max Wind Speed 20 mph    
Max Gust Speed -    
Visibility 8.0 miles    
Events Rain    
T = Trace of Precipitation, MM = Missing Value Source: Averaged Metar Reports

Daily Weather History Graph

Daily Weather History Graph

Search for Another Location

Airport or City:

Trip Planner

Search our weather history database for the weather conditions in past years. The results will help you decide how hot, cold, wet, or windy it might be!

Date:

Astronomy

Aug. 27, 2014 Rise Set
Actual Time 5:45 AM CEST 7:24 PM CEST
Civil Twilight 5:12 AM CEST 7:56 PM CEST
Nautical Twilight 4:33 AM CEST 8:35 PM CEST
Astronomical Twilight 3:50 AM CEST 9:18 PM CEST
Moon 7:34 AM CEST (8/27) 7:54 PM CEST (8/27)
Length of Visible Light 14h 43m
Length of Day
13h 38m
Waxing Crescent, 3% of the Moon is Illuminated
Aug 27
Waxing Crescent
Sep 2
First Quarter
Sep 9
Full
Sep 16
Last Quarter
Sep 24
New

Hourly Weather History & Observations

Time (CEST) Temp. Dew Point Humidity Pressure Visibility Wind Dir Wind Speed Gust Speed Precip Events Conditions
12:00 AM 64 °F 58 °F 76% 29.80 in - WSW 4.5 mph - -  
1:00 AM 62 °F 58 °F 81% 29.79 in - South 6.7 mph - -  
2:00 AM 62 °F 58 °F 81% 29.79 in - South 2.2 mph - -  
3:00 AM 62 °F 58 °F 84% 29.79 in - SSW 4.5 mph - -  
3:25 AM 62.6 °F 59.0 °F 88% 29.77 in - SSE 4.6 mph - N/A   Unknown
4:00 AM 63 °F 59 °F 81% 29.77 in - South 2.2 mph - -  
4:45 AM 62.6 °F 59.0 °F 88% 29.77 in - SSE 4.6 mph - N/A   Clear
5:00 AM 63 °F 59 °F 81% 29.76 in 12 mi SSE 4.5 mph - - Rain Light Rain
5:15 AM 62.6 °F 59.0 °F 88% 29.77 in 6.2 mi South 5.8 mph - N/A   Mostly Cloudy
5:45 AM 62.6 °F 59.0 °F 88% 29.77 in 6.2 mi South 3.5 mph - N/A   Mostly Cloudy
6:00 AM 63 °F 59 °F 84% 29.75 in 9 mi South 4.5 mph - -   Partly Cloudy
6:15 AM 62.6 °F 60.8 °F 94% 29.77 in 6.2 mi South 4.6 mph - N/A   Mostly Cloudy
7:00 AM 64 °F 60 °F 84% 29.75 in 9 mi South 4.5 mph - -   Partly Cloudy
7:00 AM - - N/A% - 6.2 mi South 5.8 mph - N/A   Mostly Cloudy
7:15 AM 64.4 °F 60.8 °F 88% 29.77 in 6.2 mi South 6.9 mph - N/A   Mostly Cloudy
7:45 AM 66.2 °F 60.8 °F 83% 29.77 in 6.2 mi SSW 6.9 mph - N/A   Mostly Cloudy
8:00 AM 65 °F 61 °F 83% 29.75 in 9 mi SSW 6.7 mph - -   Partly Cloudy
8:45 AM 66.2 °F 62.6 °F 88% 29.77 in 6.2 mi SSW 11.5 mph - N/A   Mostly Cloudy
9:00 AM 67 °F 62 °F 79% 29.76 in 9 mi SSW 11.2 mph - -   Partly Cloudy
9:15 AM 68.0 °F 62.6 °F 83% 29.77 in 6.2 mi SSW 11.5 mph - N/A   Mostly Cloudy
9:45 AM 68.0 °F 62.6 °F 83% 29.77 in 6.2 mi SW 15.0 mph - N/A   Mostly Cloudy
10:00 AM 67 °F 62 °F 79% 29.76 in 9 mi SW 13.4 mph - -   Partly Cloudy
10:00 AM - - N/A% - 6.2 mi SW 10.4 mph - N/A   Scattered Clouds
10:15 AM 66.2 °F 62.6 °F 88% 29.77 in 6.2 mi SW 13.8 mph - N/A Rain Light Rain
10:45 AM 66.2 °F 62.6 °F 88% 29.77 in 6.2 mi SW 11.5 mph - N/A   Overcast
11:00 AM 66 °F 62 °F 85% 29.77 in 7 mi SW 11.2 mph - - Rain Light Rain
11:15 AM 66.2 °F 62.6 °F 88% 29.77 in 6.2 mi SW 12.7 mph - N/A   Mostly Cloudy
11:19 AM 66.2 °F 62.6 °F 88% 29.77 in 6.2 mi SW 13.8 mph - N/A   Mostly Cloudy
11:45 AM 68.0 °F 62.6 °F 83% 29.77 in 6.2 mi SW 12.7 mph - N/A   Mostly Cloudy
12:00 PM 67 °F 63 °F 82% 29.76 in 9 mi SW 11.2 mph - - Rain Light Rain
12:15 PM 68.0 °F 62.6 °F 83% 29.77 in 6.2 mi SW 12.7 mph - N/A   Mostly Cloudy
12:28 PM 69.8 °F 62.6 °F 78% 29.77 in 6.2 mi SW 15.0 mph - N/A   Mostly Cloudy
12:45 PM 69.8 °F 62.6 °F 78% 29.77 in 6.2 mi WSW 11.5 mph - N/A   Mostly Cloudy
1:00 PM 70 °F 63 °F 72% 29.76 in 9 mi WSW 11.2 mph - -   Partly Cloudy
1:00 PM - - N/A% - 6.2 mi SW 10.4 mph - N/A   Scattered Clouds
1:15 PM 73.4 °F 62.6 °F 69% 29.77 in 6.2 mi WSW 13.8 mph - N/A   Mostly Cloudy
1:45 PM 75.2 °F 60.8 °F 61% 29.77 in 6.2 mi WSW 13.8 mph - N/A   Scattered Clouds
2:00 PM 75 °F 61 °F 53% 29.75 in 19 mi WSW 13.4 mph - -   Partly Cloudy
2:15 PM 75.2 °F 57.2 °F 53% 29.77 in 6.2 mi West 18.4 mph - N/A   Scattered Clouds
2:45 PM 77.0 °F 59.0 °F 54% 29.77 in 6.2 mi WSW 15.0 mph - N/A   Mostly Cloudy
3:00 PM 76 °F 59 °F 46% 29.74 in 19 mi WSW 13.4 mph - -   Partly Cloudy
3:15 PM 77.0 °F 55.4 °F 47% 29.74 in 6.2 mi West 17.3 mph - N/A   Mostly Cloudy
3:45 PM 75.2 °F 55.4 °F 50% 29.77 in 6.2 mi West 17.3 mph - N/A   Mostly Cloudy
4:00 PM 75 °F 56 °F 41% 29.75 in 19 mi West 17.9 mph - -   Partly Cloudy
4:09 PM 73.4 °F 55.4 °F 53% 29.77 in - West 18.4 mph - N/A   Unknown
4:15 PM 73.4 °F 55.4 °F 53% 29.77 in 6.2 mi West 19.6 mph - N/A   Mostly Cloudy
4:45 PM 73.4 °F 57.2 °F 57% 29.77 in 6.2 mi West 13.8 mph - N/A   Mostly Cloudy
5:00 PM 73 °F 56 °F 46% 29.76 in 25 mi West 13.4 mph - -   Partly Cloudy
5:15 PM 75.2 °F 55.4 °F 50% 29.77 in 6.2 mi West 16.1 mph - N/A   Scattered Clouds
6:00 PM 66 °F 56 °F 63% 29.80 in 25 mi NNE 13.4 mph - -   Partly Cloudy
6:00 PM - - N/A% - - North - - N/A   Unknown
6:15 PM 64.4 °F 55.4 °F 73% 29.80 in 6.2 mi NNE 11.5 mph - N/A   Scattered Clouds
6:45 PM 62.6 °F 53.6 °F 72% 29.83 in 6.2 mi NNE 15.0 mph - N/A   Scattered Clouds
7:00 PM 63 °F 53 °F 63% 29.83 in 25 mi NNE 13.4 mph - -   Partly Cloudy
7:15 PM 60.8 °F 53.6 °F 77% 29.83 in 6.2 mi NNE 9.2 mph - N/A   Scattered Clouds
7:45 PM 60.8 °F 53.6 °F 77% 29.86 in - NNE 9.2 mph - N/A   Clear
8:00 PM 61 °F 53 °F 67% 29.84 in 22 mi NNE 8.9 mph - -   Partly Cloudy
8:15 PM 60.8 °F 51.8 °F 72% 29.86 in - North 11.5 mph - N/A   Clear
8:45 PM 59.0 °F 51.8 °F 77% 29.89 in - North 6.9 mph - N/A   Clear
9:00 PM 59 °F 52 °F 69% 29.87 in 19 mi North 6.7 mph - -   Partly Cloudy
10:00 PM 59 °F 46 °F 51% 29.90 in - North 11.2 mph - -  
11:00 PM 58 °F 47 °F 58% 29.92 in - NNW 11.2 mph - -